Location: *
(47.5197°N, 3.4867°E)
Time: 04:10:16
(UTC+00:00)

Daily predictions for brighter satellites

Satellite Brightness Start Highest point End
(mag) Time Altitude Azimuth Time Altitude Azimuth Time Altitude Azimuth
CZ-4C R/B 4.1 02:49:28 26° NE 02:49:28 26° NE 02:52:10 10° NE
Lacrosse 5 4.3 02:56:47 18° E 02:56:47 18° E 02:58:14 10° E
Cosmos 2333 Rocket 4.3 03:07:47 19° N 03:07:47 19° N 03:09:33 10° NNE
CZ-2C R/B 4.5 03:06:07 10° NE 03:10:18 24° E 03:10:46 24° E
BREEZE-M DEB (TANK) 4.3 03:21:48 37° ENE 03:21:48 37° ENE 03:27:28 10° E
Cosmos 2237 Rocket 3.5 03:34:18 32° N 03:34:18 32° N 03:37:20 10° NNE
USA 215 3.5 03:32:20 10° NE 03:38:28 58° NNW 03:38:28 58° NNW
Meteor 2-10 Rocket 4.2 03:40:28 51° ENE 03:40:28 51° ENE 03:44:48 10° NNE
Cosmos 2219 Rocket 4.1 03:42:44 19° N 03:42:44 19° N 03:44:52 10° N
ATLAS CENTAUR R/B 3.1 03:49:21 33° NE 03:49:21 33° NE 03:51:48 10° NE
MSX 3.8 03:52:06 10° NNE 03:57:22 75° N 03:57:22 75° N
Cosmos 1943 Rocket 2.6 03:55:25 31° N 03:57:54 57° ENE 04:03:19 10° SE
NOSS 3-1 (A) 4.0 04:01:46 60° W 04:02:44 64° WSW 04:11:14 10° SSE
H-2A R/B 4.0 03:59:27 10° NNE 04:03:34 37° E 04:06:15 19° SSE
USA 267 4.4 04:07:24 10° SSE 04:10:41 26° S 04:10:41 26° S
SL-16 R/B 2.1 04:15:01 69° WNW 04:15:01 69° WNW 04:20:42 10° NNE
Cosmos 1842 Rocket 3.9 04:21:59 29° SSE 04:24:08 64° E 04:28:35 10° NNE
CZ-4B R/B 4.4 04:20:39 10° NNE 04:24:57 65° E 04:27:10 28° S
Cosmos 2369 Rocket 2.3 04:20:47 12° NNW 04:26:10 74° ENE 04:31:53 10° SSE
NOSS 2-1 (C) 4.4 04:30:40 32° N 04:30:40 32° N 04:33:08 10° NNE
Cosmos 1603 4.5 04:25:56 10° S 04:31:27 52° ESE 04:36:58 10° NE
NOSS 2-1 (D) 4.3 04:34:39 32° N 04:34:39 32° N 04:37:12 10° NNE
Cosmos 921 Rocket 4.0 04:29:43 10° N 04:34:02 46° ENE 04:38:14 10° SE
CZ-4C R/B 3.3 04:34:38 28° NW 04:35:26 29° NNW 04:40:58 10° NNE
IDEFIX/ARIANE 42P 3.9 04:31:22 10° N 04:34:08 24° NNW 04:34:08 24° NNW
Cosmos 2251 Rocket 3.6 04:36:06 51° WNW 04:36:14 51° WNW 04:41:26 10° NNE
Cosmos 1943 4.3 04:31:15 10° S 04:36:32 44° ESE 04:41:51 10° NE
PAYLOAD A 4.0 04:31:59 10° N 04:36:42 53° WNW 04:36:42 53° WNW
Lacrosse 5 1.7 04:36:01 60° W 04:36:45 69° SW 04:41:46 10° SE
ATLAS 2AS CENTAUR R/B 4.4 04:30:43 10° NW 04:37:23 30° NNE 04:43:43 10° E
Cosmos 1633 4.3 04:34:29 10° N 04:37:51 34° ENE 04:41:12 10° SE
Cosmos 2263 4.4 04:34:47 10° NNW 04:40:31 71° ENE 04:46:08 10° SE
COSMO-SKYMED 1 3.0 04:37:42 10° SSE 04:41:59 64° ENE 04:46:18 10° N
STARLINK-1131 4.5 04:43:22 28° NNE 04:43:22 28° NNE 04:45:55 10° ENE
STARLINK-1190 4.4 04:45:30 29° N 04:45:30 29° N 04:48:10 10° ENE
Cosmos 2221 2.5 04:42:16 11° S 04:46:24 84° E 04:50:43 10° N
CZ-2C R/B 2.6 04:43:46 10° N 04:48:47 51° WNW 04:50:10 40° WSW
Meteor 2-3 Rocket 3.7 04:43:41 10° NNW 04:49:23 65° W 04:55:06 10° S
Cosmos 2333 Rocket 4.3 04:49:47 11° NNW 04:50:10 11° NNW 04:51:52 10° N
ADEOS Rocket 4.4 04:45:18 10° SE 04:51:13 44° ENE 04:57:47 10° N
ALOS 2.7 04:52:04 10° NNE 04:56:44 63° E 05:01:21 10° S
Cosmos 1484 Rocket 2.7 04:52:52 10° NNE 04:56:51 87° W 05:00:50 10° SSW
Cosmos 1605 Rocket 4.3 04:57:20 10° NNW 05:03:02 39° W 05:08:38 10° SSW
STARLINK-1179 4.2 05:04:27 24° N 05:04:31 24° N 05:06:46 10° ENE
STARLINK-1176 4.1 05:05:01 24° N 05:05:09 25° N 05:07:26 10° ENE
SKYMED 3 4.4 05:01:44 10° S 05:06:03 74° WSW 05:10:25 10° NNW
STARLINK-1129 4.3 05:05:59 27° NNW 05:06:44 30° N 05:09:41 10° ENE
ADEOS 4.4 05:03:18 10° N 05:07:45 29° WNW 05:08:26 28° WNW
STARLINK-1134 4.3 05:07:53 26° NNW 05:08:43 30° N 05:11:40 10° ENE
Cosmos 2016 Rocket 4.4 05:03:19 10° N 05:09:33 67° E 05:15:49 10° SSE
GEOS 3 Rocket 3.6 05:04:51 10° NE 05:10:10 76° NW 05:14:28 16° SW
STARLINK-1135 4.3 05:10:10 25° NNW 05:11:06 30° N 05:14:03 10° ENE
Cosmos 1238 4.0 05:08:26 10° S 05:11:27 85° W 05:14:36 10° N
STARLINK-1141 4.3 05:12:25 25° NNW 05:13:28 30° N 05:16:26 10° ENE
PSLV R/B 3.6 05:10:49 10° NNE 05:14:33 84° WNW 05:18:21 10° SSW
STARLINK-1140 4.3 05:14:30 24° NNW 05:15:39 31° N 05:18:37 10° ENE
Cosmos 2237 Rocket 3.9 05:16:08 14° NW 05:17:05 15° NW 05:20:10 10° N
STARLINK-1156 4.3 05:16:43 23° NW 05:17:58 31° N 05:20:57 10° ENE
Cosmos 407 Rocket 3.4 05:13:22 10° SSW 05:18:41 77° WNW 05:24:00 10° NNE
Meteor 1-27 4.3 05:14:10 10° SSW 05:19:34 53° WNW 05:25:02 10° N
Cosmos 1140 Rocket 3.6 05:14:40 10° SSW 05:19:55 82° ESE 05:25:12 10° NNE
STARLINK-1148 4.3 05:18:49 22° NW 05:20:10 31° N 05:23:09 10° ENE
Aureole 2 Rocket 2.4 05:20:04 37° W 05:20:35 41° WSW 05:23:34 10° S
CZ-4B R/B 3.1 05:17:21 10° N 05:20:47 36° WNW 05:22:18 24° WSW
NOSS 2-1 (E) 4.5 05:20:17 22° NW 05:20:57 23° NNW 05:24:13 10° NNE
USA 215 4.1 05:15:07 10° ENE 05:21:06 39° N 05:25:50 16° WNW
STARLINK-1113 4.5 05:18:39 12° SW 05:22:07 46° SE 05:25:59 10° ENE
STARLINK-1158 4.3 05:21:02 22° NW 05:22:29 31° N 05:25:28 10° ENE
Meteor 2-2 Rocket 4.3 05:16:52 10° SSW 05:22:53 74° WNW 05:28:57 10° N
Meteor 1-31 Rocket 3.6 05:21:37 10° N 05:24:54 28° WNW 05:25:46 25° W
STARLINK-1102 4.4 05:21:14 11° SW 05:24:54 47° SE 05:28:49 10° ENE
METEOR-M 4.0 05:21:13 10° NNE 05:26:34 78° WNW 05:31:54 10° SSW
STARLINK-1119 4.3 05:23:02 11° SW 05:26:41 49° SE 05:30:35 10° ENE
ATLAS CENTAUR R/B 3.1 05:25:33 18° NW 05:26:48 20° NNW 05:30:03 10° NNE
Cosmos 1805 Rocket 3.4 05:23:29 10° NNW 05:27:49 69° W 05:32:07 10° S
STARLINK-1111 4.3 05:25:45 11° SW 05:29:36 51° SE 05:33:33 10° ENE
Sich 1 3.0 05:25:48 10° N 05:30:07 89° W 05:34:26 10° S
SKYMED 2 3.9 05:26:02 10° S 05:30:08 42° W 05:34:17 10° NNW
STARLINK-1114 4.2 05:27:27 11° SW 05:31:16 53° SE 05:35:11 10° ENE
Cosmos 1727 Rocket 4.3 05:26:19 10° SW 05:32:08 42° WNW 05:37:58 10° N
STARLINK-1073 4.2 05:30:22 10° SW 05:34:20 55° SE 05:38:20 10° ENE
Cosmos 1500 Rocket 4.4 05:31:17 10° NNW 05:35:04 28° W 05:38:49 10° SSW
STARLINK-1130 (DARKSAT) 4.1 05:31:52 10° SW 05:35:48 57° SE 05:39:45 10° ENE
Cosmos 2173 Rocket 4.1 05:32:05 10° NNW 05:38:12 55° W 05:44:13 10° SSW
H-2A R/B 3.6 05:35:13 10° N 05:38:53 27° WNW 05:42:37 10° WSW
STARLINK-1121 4.1 05:35:11 10° SW 05:39:11 59° SE 05:43:11 10° ENE
STARLINK-1084 4.0 05:36:24 10° SW 05:40:21 61° SE 05:44:21 10° ENE
STARLINK-1118 2.2 05:39:19 22° WSW 05:40:45 82° NNW 05:43:17 10° ENE
STARLINK-1153 4.0 05:38:52 16° NW 05:40:46 32° NNE 05:43:26 10° ENE
STARLINK-1180 4.0 05:39:02 16° NW 05:40:57 32° NNE 05:43:38 10° ENE
Cosmos 1943 Rocket 3.1 05:37:01 10° NW 05:41:15 24° WSW 05:45:34 10° SSW
STARLINK-1174 4.0 05:39:30 16° NW 05:41:25 32° NNE 05:44:06 10° ENE
Cosmos 2084 3.8 05:36:57 10° SSW 05:41:25 75° SE 05:45:55 10° NE
STARLINK-1139 4.0 05:39:43 16° NW 05:41:39 32° NNE 05:44:20 10° ENE
STARLINK-1133 4.0 05:39:56 15° NW 05:41:52 32° NNE 05:44:33 10° ENE
STARLINK-1151 4.0 05:40:10 15° NW 05:42:07 32° NNE 05:44:49 10° E
Cosmos 1190 Rocket 4.1 05:37:34 10° SW 05:42:45 57° WNW 05:48:01 10° NNE
STARLINK-1160 4.0 05:40:48 15° NW 05:42:47 32° NNE 05:45:28 10° E
STARLINK-1161 4.0 05:41:00 15° NW 05:43:00 32° NNE 05:45:41 10° E
Cosmos 614 Rocket 4.3 05:38:06 10° SW 05:43:02 44° WNW 05:48:01 10° NNE
STARLINK-1145 4.0 05:41:14 15° NW 05:43:14 32° NNE 05:45:56 10° E
STARLINK-1172 4.0 05:41:26 15° NW 05:43:26 32° NNE 05:46:08 10° E
STARLINK-1182 4.0 05:41:53 15° NW 05:43:54 32° NNE 05:46:36 10° E
STARLINK-1106 4.0 05:39:55 10° SW 05:43:56 64° SSE 05:47:58 10° ENE
STARLINK-1164 4.0 05:42:04 15° NW 05:44:07 32° NNE 05:46:48 10° E
STARLINK-1168 4.0 05:42:18 15° NW 05:44:21 32° NNE 05:47:03 10° E
STARLINK-1183 4.0 05:42:57 15° NW 05:45:01 32° NNE 05:47:43 10° E
STARLINK-1181 4.0 05:43:09 14° NW 05:45:14 32° NNE 05:47:56 10° E
Okean O Rocket 1.6 05:41:11 10° NNE 05:45:35 86° ESE 05:49:56 10° SSW
STARLINK-1149 3.9 05:43:41 15° NW 05:45:35 32° NNE 05:48:06 10° E
STARLINK-1196 4.0 05:43:49 14° NW 05:45:57 33° NNE 05:48:39 10° E
STARLINK-1186 4.0 05:44:16 14° NW 05:46:23 33° NNE 05:49:06 10° E
STARLINK-1185 4.0 05:44:28 14° NW 05:46:37 33° NNE 05:49:19 10° E
STARLINK-1175 4.0 05:44:40 14° NW 05:46:49 33° NNE 05:49:32 10° E
STARLINK-1147 4.0 05:44:54 14° NW 05:47:03 33° NNE 05:49:46 10° E
STARLINK-1146 4.0 05:45:07 14° NW 05:47:18 33° NNE 05:50:01 10° E
Cosmos 1400 Rocket 2.9 05:43:21 10° S 05:47:22 86° E 05:51:29 10° NNE
STARLINK-1152 4.0 05:45:20 14° NW 05:47:31 33° NNE 05:50:14 10° E
STARLINK-1195 4.0 05:45:33 14° NW 05:47:45 33° NNE 05:50:28 10° E
STARLINK-1137 4.0 05:45:46 14° NW 05:47:59 33° NNE 05:50:41 10° E
STARLINK-1142 3.9 05:46:00 14° NW 05:48:12 33° NNE 05:50:55 10° E
Cosmos 1869 4.0 05:44:48 10° SW 05:48:24 31° WNW 05:51:59 10° N
STARLINK-1127 3.9 05:46:12 14° NW 05:48:25 33° NNE 05:51:08 10° E
STARLINK-1184 3.9 05:46:25 13° NW 05:48:38 33° NNE 05:51:21 10° E
STARLINK-1193 3.9 05:46:39 13° NW 05:48:53 33° NNE 05:51:36 10° E
STARLINK-1112 3.9 05:44:52 10° SW 05:48:55 68° SSE 05:52:59 10° ENE
STARLINK-1194 3.9 05:46:49 13° NW 05:49:04 33° NNE 05:51:47 10° E
DMSP B5D1-3 4.5 05:44:49 10° S 05:49:52 66° WSW 05:54:57 10° NNW
STARLINK-1132 3.7 05:51:17 12° NW 05:53:33 35° NNE 05:56:09 10° E
Cosmos 2100 Rocket 4.4 05:47:57 10° NNW 05:53:38 39° W 05:59:16 10° SSW
Cosmos 468 Rocket 4.5 05:49:37 10° NNW 05:54:57 66° ENE 06:00:11 10° SSE
STARLINK-1150 3.7 05:53:40 12° NW 05:56:03 35° NNE 05:58:39 10° E
STARLINK-1163 3.7 05:54:51 11° NW 05:57:17 36° NNE 05:59:52 10° E
STARLINK-1162 4.0 05:55:24 11° NW 05:58:20 38° NNE 06:01:22 10° E
Cosmos 1151 Rocket 3.5 05:54:30 10° S 05:58:46 65° E 06:03:05 10° NNE
STARLINK-1173 3.7 05:56:42 11° NW 05:59:12 37° NNE 06:01:49 10° E
Shenzhou-11 Module 3.4 05:57:01 10° SW 05:59:17 25° S 06:01:33 10° ESE
STARLINK-1177 3.7 05:56:51 11° NW 05:59:22 37° NNE 06:01:59 10° E
STARLINK-1167 3.6 05:57:38 11° NW 06:00:11 37° NNE 06:02:48 10° E
SL-16 R/B 3.8 05:56:55 11° WNW 06:00:14 17° NW 06:03:48 10° N
Cosmos 676 Rocket 4.0 05:54:57 10° SSW 06:00:14 66° WNW 06:05:35 10° NNE
STARLINK-1157 3.9 05:57:18 10° NW 06:00:19 39° NNE 06:03:21 10° E
FENGYUN 3A 4.1 05:56:28 10° N 06:01:33 41° WNW 06:06:36 10° SW
STARLINK-1159 3.9 05:59:18 10° NW 06:02:22 40° NNE 06:05:25 10° E
Cosmos 1328 Rocket 3.8 05:59:07 10° S 06:03:32 76° E 06:08:00 10° NNE
STARLINK-1070 2.8 06:00:47 10° WSW 06:03:41 60° NNW 06:06:36 10° ENE
STARLINK-1124 3.0 06:01:29 11° W 06:04:17 52° NNW 06:07:09 10° ENE
NOSS 3-3 (A) 4.4 05:58:31 10° SSW 06:04:20 67° ESE 06:10:53 10° NE
NOSS 3-3 (C) 4.5 05:58:36 10° SSW 06:04:26 66° ESE 06:11:00 10° NE
STARLINK-1066 2.8 06:01:41 10° WSW 06:04:35 59° NNW 06:07:30 10° ENE
STARLINK-1171 3.9 06:01:32 10° NW 06:04:36 40° NNE 06:07:40 10° E
STARLINK-1081 2.8 06:01:55 10° WSW 06:04:48 59° NNW 06:07:43 10° ENE
STARLINK-1136 3.6 06:02:25 10° NW 06:05:03 39° NNE 06:07:42 10° E
STARLINK-1069 2.8 06:02:22 10° WSW 06:05:15 58° NNW 06:08:10 10° ENE
STARLINK-1085 2.8 06:02:36 10° WSW 06:05:30 58° NNW 06:08:24 10° ENE
STARLINK-1086 2.8 06:02:50 10° WSW 06:05:43 58° NNW 06:08:38 10° ENE
STARLINK-1095 2.8 06:03:03 10° WSW 06:05:57 58° NNW 06:08:51 10° ENE
STARLINK-1077 2.8 06:03:17 10° WSW 06:06:10 58° NNW 06:09:04 10° ENE
STARLINK-1075 2.9 06:03:30 10° WSW 06:06:24 57° NNW 06:09:18 10° ENE
STARLINK-1093 2.9 06:03:43 10° WSW 06:06:37 57° NNW 06:09:31 10° ENE
STARLINK-1155 3.9 06:03:34 10° NW 06:06:39 41° NNE 06:09:43 10° E
Cosmos 1238 Rocket 4.1 06:01:00 10° NNW 06:06:45 42° W 06:11:41 10° SSW
STARLINK-1074 2.9 06:03:57 10° WSW 06:06:49 57° NNW 06:09:43 10° ENE
STARLINK-1087 2.9 06:04:11 10° WSW 06:07:04 57° NNW 06:09:58 10° ENE
STARLINK-1088 2.9 06:04:23 10° WSW 06:07:16 57° NNW 06:10:09 10° ENE
STARLINK-1115 2.9 06:04:38 10° WSW 06:07:30 56° NNW 06:10:25 10° ENE
STARLINK-1076 2.9 06:04:51 10° WSW 06:07:44 56° NNW 06:10:38 10° ENE
STARLINK-1092 2.9 06:05:05 10° WSW 06:07:58 56° NNW 06:10:52 10° ENE
Cosmos 2061 Rocket 4.3 06:02:07 10° NNW 06:08:04 46° W 06:13:57 10° SSW
STARLINK-1080 2.9 06:05:17 10° WSW 06:08:10 56° NNW 06:11:04 10° ENE
STARLINK-1090 2.9 06:05:31 10° WSW 06:08:24 56° NNW 06:11:19 10° ENE
STARLINK-1089 2.9 06:05:46 10° WSW 06:08:39 56° NNW 06:11:33 10° ENE
STARLINK-1107 2.9 06:05:58 10° WSW 06:08:50 55° NNW 06:11:44 10° ENE
STARLINK-1166 3.8 06:05:55 10° WNW 06:09:01 42° NNE 06:12:06 10° E
STARLINK-1109 2.9 06:06:12 10° WSW 06:09:05 55° NNW 06:11:59 10° ENE
H-2A R/B 2.7 06:05:31 10° NNE 06:09:18 88° W 06:13:01 10° SSW
STARLINK-1091 2.9 06:06:27 10° WSW 06:09:19 55° NNW 06:12:14 10° ENE
STARLINK-1072 2.9 06:06:39 10° WSW 06:09:32 55° NNW 06:12:25 10° ENE
Cosmos 2369 Rocket 3.5 06:05:37 10° NW 06:09:33 19° W 06:13:29 10° SW
STARLINK-1096 2.9 06:06:52 10° WSW 06:09:45 55° NNW 06:12:38 10° ENE
STARLINK-1079 2.9 06:07:06 10° WSW 06:10:00 54° NNW 06:12:53 10° ENE
STARLINK-1116 2.9 06:07:21 10° WSW 06:10:13 54° NNW 06:13:07 10° ENE
STARLINK-1094 2.9 06:07:48 10° WSW 06:10:40 54° NNW 06:13:34 10° ENE
STARLINK-1117 2.9 06:08:01 10° WSW 06:10:53 54° NNW 06:13:47 10° ENE
STARLINK-1078 2.9 06:08:15 10° WSW 06:11:07 54° NNW 06:14:00 10° ENE
STARLINK-1165 3.8 06:08:03 10° WNW 06:11:10 43° NNE 06:14:16 10° E
STARLINK-1108 2.9 06:08:28 10° WSW 06:11:20 53° NNW 06:14:14 10° ENE
STARLINK-1071 2.9 06:08:41 10° WSW 06:11:32 53° NNW 06:14:25 10° ENE
STARLINK-1110 2.9 06:08:55 10° W 06:11:48 53° NNW 06:14:40 10° ENE
Cosmos 921 Rocket 4.4 06:08:46 10° NW 06:11:58 20° W 06:15:07 10° SW
STARLINK-1122 3.0 06:09:23 10° W 06:12:15 53° NNW 06:15:08 10° ENE
Cosmos 1633 4.0 06:09:57 10° NW 06:12:26 18° W 06:14:55 10° SW
STARLINK-1126 3.0 06:09:36 10° W 06:12:28 52° NNW 06:15:21 10° ENE
STARLINK-1082 3.0 06:09:50 10° W 06:12:43 52° NNW 06:15:36 10° ENE
STARLINK-1100 3.0 06:10:03 10° W 06:12:55 52° NNW 06:15:47 10° ENE
STARLINK-1083 3.0 06:10:16 10° W 06:13:08 52° NNW 06:16:01 10° ENE
STARLINK-1169 3.8 06:10:12 10° WNW 06:13:18 44° NNE 06:16:26 10° E
STARLINK-1125 3.0 06:10:30 10° W 06:13:22 52° NNW 06:16:15 10° ENE
NOAA 6 4.2 06:11:36 10° N 06:16:36 51° WNW 06:21:35 10° SW
Cosmos 1725 Rocket 4.2 06:11:53 10° NNW 06:17:52 50° W 06:23:52 10° SSW
